[[{"header":{"parameterUnit":"m.s-1","parameterCategory":1,"la1":30.2991,"la2":30.254,"lo1":-89.0895,"lo2":-89.0444,"dy":0.0017,"dx":0.0017,"nx":28,"ny":28,"refTime":"2024-08-07T21:00:00:Z","depth":0,"parameterNumber":2,"parameterNumberName":"U-component_of_WINDS"},"data":[0,0,0,0,0,0,0,0,0,0,0,0,0,0,0,0,0,0,0,0,0,0,0,0,0,0,0,0,0,0,0,0,0,0,0,0,0,0,0,0,0,0,0,0,0,0,0,0,0,0,0,0,0,0,0,0,0,0,3.5793,3.5794,0,3.5897,3.5899,3.59,3.5838,3.5835,3.5833,3.583,3.594,3.5946,3.5951,0,0,0,0,0,0,0,0,0,0,0,0,0,3.5545,3.555,3.5793,3.5794,3.5796,3.5897,3.5899,3.59,3.5839,3.5835,3.5832,3.5828,3.5938,3.5945,3.5952,0,0,0,0,0,0,0,0,0,0,0,0,0,3.5652,3.5552,3.5793,3.5777,3.5777,3.5897,3.5899,3.59,3.584,3.5835,3.5831,3.5827,3.5936,3.5944,3.5953,3.6095,0,0,3.5979,3.5983,0,0,0,0,0,0,0,0,3.5646,3.5661,3.5778,3.5779,3.5779,3.585,3.5852,3.5966,3.5841,3.5816,3.583,3.5824,3.5914,3.5924,3.5954,3.61,3.6105,3.598,3.5985,3.5989,3.5991,0,0,0,0,0,0,0,3.5638,3.5656,3.5834,3.578,3.578,3.5767,3.5777,3.5873,3.5889,3.5818,3.5814,3.5827,3.5913,3.5945,3.5956,3.6106,3.5979,3.5987,3.5992,3.5996,3.6376,3.638,0,0,0,0,0,0,3.5632,3.565,3.5831,3.5838,3.57,3.5775,3.5786,3.5832,3.5888,3.5892,3.583,3.5823,3.5933,3.5946,3.5959,3.613,3.5988,3.5997,3.6001,3.6371,3.6377,3.6382,0,0,0,0,0,0,3.5627,3.5648,3.5827,3.5743,3.5764,3.5784,3.5836,3.5836,3.5868,3.5897,3.59,3.586,3.593,3.5947,3.6062,3.6133,3.6,3.6008,3.6365,3.6373,3.6379,3.6472,0,0,0,0,0,0,3.562,3.5647,3.57,3.5744,3.5769,3.5927,3.584,3.5841,3.5883,3.5875,3.5926,3.593,3.5928,3.6049,3.607,3.6142,3.6015,3.6359,3.6368,3.6377,3.6463,3.6482,3.6498,0,0,0,0,0,3.5611,3.5723,3.5703,3.5725,3.5836,3.5931,3.5945,3.5939,3.5889,3.5943,3.5962,3.5928,3.6122,3.6061,3.6084,3.616,3.6354,3.6366,3.6376,3.6455,3.6478,3.6498,0,0,0,0,0,0,3.5688,3.5728,3.5707,3.5836,3.588,3.592,3.5988,3.5964,3.6024,3.6014,3.6006,3.6018,3.6137,3.616,3.6092,3.6301,3.623,3.6247,3.6282,3.6304,3.6322,3.6314,3.6022,0,0,0,0,0,3.5719,3.5791,3.5824,3.5935,3.5958,3.597,3.6011,3.6002,3.6048,3.6067,3.6094,3.6141,3.6212,3.6259,3.6327,3.6466,3.6477,3.653,3.6547,3.6562,3.6576,3.6652,3.6677,3.6419,3.6419,3.6418,0,0,3.5786,3.5817,3.5863,3.5951,3.5984,3.606,3.5986,3.6069,3.6127,3.608,3.6189,3.6211,3.6263,3.6391,3.6448,3.6413,3.665,3.6576,3.6587,3.6594,3.6666,3.6691,3.6713,3.6426,3.6425,3.6424,0,0,3.5946,3.5977,3.6073,3.6107,3.6158,3.6165,3.6189,3.6233,3.6245,3.6354,3.6321,3.6389,3.6512,3.6551,3.6587,3.6762,3.6734,3.6784,3.6877,3.6952,3.6972,3.699,3.7054,3.7076,3.6799,3.6799,3.6799,0,3.6023,3.6135,3.6126,3.6212,3.6252,3.6212,3.631,3.6345,3.6416,3.6445,3.6405,3.6558,3.659,3.6727,3.677,3.68,3.6827,3.6779,3.697,3.6988,3.7004,3.7065,3.7089,3.6805,3.6804,3.6803,3.6803,0,3.6228,3.6307,3.6378,3.6447,3.6495,3.6587,3.6592,3.6642,3.663,3.6641,3.6754,3.6791,3.6865,3.6897,3.6886,3.7033,3.701,3.697,3.6898,3.7035,3.7092,3.7115,3.6813,3.6811,3.6809,3.6808,0,0,3.644,3.6501,3.6528,3.6559,3.6612,3.6674,3.6764,3.6836,3.6879,3.693,3.7007,3.7112,3.7075,3.7116,3.7109,3.7174,3.7312,3.7126,3.7128,3.7161,3.7477,3.7508,3.7534,3.7294,3.7298,3.7302,3.7473,0,3.6604,3.6761,3.6755,3.6902,3.6976,3.6939,3.7018,3.7061,3.7074,3.7139,3.7155,3.723,3.7175,3.72,3.7263,3.7282,3.7376,3.727,3.7367,3.737,3.7355,3.7564,3.7596,3.7756,3.7495,3.7499,3.7502,0,3.6817,3.6874,3.7028,3.7071,3.7102,3.7173,3.7238,3.73,3.7348,3.7354,3.7399,3.7382,3.7475,3.7401,3.753,3.7458,3.7497,3.7513,3.7519,3.7528,3.7445,3.758,3.7807,3.7832,3.7537,3.7534,3.7531,0,3.6958,3.7073,3.718,3.7207,3.726,3.7311,3.7335,3.7378,3.7422,3.748,3.7508,3.7576,3.7614,3.7668,3.767,3.7616,3.7802,3.7727,3.781,3.781,3.7851,3.7849,3.8089,3.7876,3.7875,3.7875,3.7874,0,3.7143,3.7239,3.7243,3.731,3.7417,3.7409,3.7516,3.7535,3.7574,3.7644,3.7617,3.7684,3.7683,3.7751,3.7754,3.7861,3.7878,3.7886,3.7886,3.7889,3.7888,3.7915,3.7905,3.7881,3.788,3.7878,3.7877,0,3.7318,3.7325,3.7439,3.7479,3.7492,3.7569,3.7604,3.7668,3.7679,3.7768,3.7789,3.7807,3.7886,3.7893,3.7986,3.7987,3.8118,3.8105,3.8101,3.8099,3.8182,3.8175,3.8449,3.8485,3.8247,3.825,3.8251,0,3.7436,3.7509,3.7556,3.7601,3.7628,3.77,3.7744,3.774,3.7788,3.7847,3.7904,3.7981,3.8041,3.817,3.8192,3.8263,3.8252,3.8343,3.8263,3.8264,3.8255,3.8251,3.8259,3.8359,3.8362,3.8364,3.8366,0,3.7645,3.7644,3.7708,3.7774,3.7827,3.7879,3.7928,3.7966,3.7968,3.8023,3.8103,3.815,3.8244,3.8321,3.839,3.8416,3.8393,3.8391,3.8414,3.8419,3.8414,3.8419,3.8145,3.8385,3.8383,3.8382,3.8381,3.838,3.7796,3.7859,3.7902,3.7975,3.8011,3.8057,3.8118,3.8137,3.8203,3.8278,3.8272,3.8361,3.8408,3.8498,3.853,3.86,3.857,3.8603,3.8612,3.8621,3.8629,3.8402,3.8613,3.8612,3.8612,3.8612,3.8611,0,3.8004,3.803,3.8097,3.8165,3.8222,3.8193,3.8245,3.8296,3.8374,3.8418,3.8479,3.8571,3.8645,3.8673,3.8746,3.8797,3.8788,3.8817,3.8813,3.882,3.8652,3.8625,3.8823,3.8823,3.8823,3.8823,3.8823,3.8823,3.8119,3.8225,3.823,3.8354,3.8379,3.8465,3.8498,3.8541,3.8576,3.8681,3.8742,3.8759,3.8797,3.8873,3.894,3.8946,3.8975,3.9009,3.9011,3.8853,3.8832,3.8812,3.8786,3.9015,3.9015,3.9173,3.9174,3.9175]},{"header":{"parameterUnit":"m.s-1","parameterCategory":1,"la1":30.2991,"la2":30.254,"lo1":-89.0895,"lo2":-89.0444,"dy":0.0017,"dx":0.0017,"nx":28,"ny":28,"refTime":"2024-08-07T21:00:00:Z","depth":0,"parameterNumber":3,"parameterNumberName":"V-component_of_WINDS"},"data":[0,0,0,0,0,0,0,0,0,0,0,0,0,0,0,0,0,0,0,0,0,0,0,0,0,0,0,0,0,0,0,0,0,0,0,0,0,0,0,0,0,0,0,0,0,0,0,0,0,0,0,0,0,0,0,0,0,0,-1.0462,-1.0463,0,-1.0528,-1.0528,-1.0529,-1.0557,-1.0557,-1.0557,-1.0557,-1.0625,-1.0627,-1.0629,0,0,0,0,0,0,0,0,0,0,0,0,0,-1.0364,-1.0366,-1.0462,-1.0463,-1.0464,-1.0527,-1.0528,-1.0529,-1.0557,-1.0557,-1.0557,-1.0556,-1.0625,-1.0627,-1.0629,0,0,0,0,0,0,0,0,0,0,0,0,0,-1.0416,-1.0367,-1.0462,-1.0485,-1.0488,-1.0527,-1.0528,-1.053,-1.0557,-1.0557,-1.0557,-1.0556,-1.0624,-1.0627,-1.063,-1.0651,0,0,-1.0639,-1.064,0,0,0,0,0,0,0,0,-1.0413,-1.042,-1.0481,-1.0484,-1.0487,-1.0534,-1.0519,-1.057,-1.0557,-1.0531,-1.0557,-1.0556,-1.0595,-1.06,-1.0613,-1.0655,-1.0657,-1.0639,-1.0641,-1.0642,-1.0643,0,0,0,0,0,0,0,-1.0409,-1.0417,-1.0488,-1.0482,-1.0486,-1.0493,-1.05,-1.0529,-1.0563,-1.0533,-1.0535,-1.0543,-1.0597,-1.061,-1.0615,-1.0659,-1.0639,-1.0641,-1.0643,-1.0644,-1.0722,-1.0722,0,0,0,0,0,0,-1.0402,-1.0414,-1.0486,-1.049,-1.0449,-1.0495,-1.0503,-1.0519,-1.0563,-1.057,-1.0543,-1.0544,-1.0605,-1.0612,-1.0618,-1.0646,-1.0642,-1.0645,-1.0646,-1.0721,-1.0722,-1.0722,0,0,0,0,0,0,-1.04,-1.0408,-1.0484,-1.0453,-1.0463,-1.0497,-1.0515,-1.052,-1.0534,-1.057,-1.0577,-1.055,-1.0605,-1.0613,-1.0643,-1.0649,-1.0646,-1.0649,-1.0721,-1.0722,-1.0722,-1.0703,0,0,0,0,0,0,-1.0397,-1.0407,-1.0415,-1.0453,-1.0464,-1.0507,-1.0515,-1.0522,-1.0539,-1.0541,-1.0579,-1.0585,-1.0606,-1.0638,-1.0646,-1.0653,-1.0651,-1.0721,-1.0721,-1.0722,-1.0703,-1.0703,-1.0702,0,0,0,0,0,-1.0393,-1.0407,-1.0415,-1.0424,-1.0475,-1.0507,-1.0514,-1.0537,-1.0539,-1.0548,-1.0571,-1.0584,-1.0647,-1.0641,-1.065,-1.0658,-1.072,-1.0721,-1.0722,-1.0703,-1.0703,-1.0702,0,0,0,0,0,0,-1.037,-1.0413,-1.0422,-1.0449,-1.0474,-1.0512,-1.0523,-1.0536,-1.0562,-1.0562,-1.0591,-1.0599,-1.0626,-1.0645,-1.0638,-1.0681,-1.0685,-1.0687,-1.0668,-1.0668,-1.0667,-1.0662,-1.0653,0,0,0,0,0,-1.0368,-1.039,-1.0426,-1.0446,-1.0459,-1.0489,-1.0504,-1.0519,-1.0547,-1.0558,-1.0584,-1.0611,-1.0637,-1.0653,-1.0679,-1.0706,-1.0715,-1.0716,-1.0716,-1.0715,-1.0717,-1.0733,-1.0734,-1.0724,-1.0724,-1.0724,0,0,-1.0364,-1.039,-1.0402,-1.0442,-1.0464,-1.0487,-1.0498,-1.0521,-1.0539,-1.0562,-1.0591,-1.0611,-1.0643,-1.0671,-1.0685,-1.0688,-1.0722,-1.0716,-1.0715,-1.0718,-1.0734,-1.0735,-1.0736,-1.0725,-1.0725,-1.0725,0,0,-1.0369,-1.0391,-1.041,-1.0431,-1.0463,-1.0483,-1.0488,-1.0524,-1.0538,-1.0567,-1.0585,-1.0607,-1.0651,-1.0674,-1.0691,-1.0704,-1.0717,-1.0712,-1.071,-1.0725,-1.0726,-1.0727,-1.0732,-1.0733,-1.0714,-1.0714,-1.0714,0,-1.036,-1.0394,-1.0418,-1.0441,-1.0458,-1.048,-1.05,-1.052,-1.0559,-1.0571,-1.0574,-1.063,-1.0653,-1.0687,-1.069,-1.0703,-1.071,-1.0708,-1.0724,-1.0725,-1.0726,-1.0731,-1.0733,-1.0713,-1.0713,-1.0713,-1.0713,0,-1.0383,-1.0406,-1.0418,-1.0454,-1.0473,-1.0495,-1.0522,-1.0539,-1.0553,-1.0573,-1.0603,-1.0632,-1.0664,-1.0674,-1.0688,-1.071,-1.0711,-1.0718,-1.0722,-1.0726,-1.0731,-1.0733,-1.0712,-1.0712,-1.0712,-1.0712,0,0,-1.0374,-1.0424,-1.0428,-1.0445,-1.0482,-1.0501,-1.0524,-1.0555,-1.0569,-1.0595,-1.0615,-1.0653,-1.066,-1.0679,-1.0696,-1.071,-1.0719,-1.0716,-1.0717,-1.0716,-1.0746,-1.074,-1.0742,-1.0728,-1.0729,-1.0729,-1.0743,0,-1.0384,-1.0425,-1.0447,-1.0478,-1.0501,-1.0522,-1.0542,-1.0568,-1.0587,-1.061,-1.0632,-1.0657,-1.0665,-1.0677,-1.0691,-1.0715,-1.0726,-1.0714,-1.0748,-1.0749,-1.0739,-1.0745,-1.0739,-1.075,-1.0745,-1.0746,-1.0746,0,-1.0401,-1.0426,-1.046,-1.0495,-1.0505,-1.0522,-1.0553,-1.0574,-1.0604,-1.0617,-1.0639,-1.0656,-1.0682,-1.0684,-1.072,-1.0712,-1.0727,-1.0741,-1.0742,-1.0746,-1.0747,-1.0749,-1.0755,-1.0757,-1.075,-1.0749,-1.0749,0,-1.0392,-1.0434,-1.046,-1.0474,-1.0515,-1.0527,-1.0545,-1.0575,-1.0592,-1.0619,-1.0631,-1.0661,-1.0677,-1.07,-1.0725,-1.0724,-1.0759,-1.0763,-1.0772,-1.0771,-1.0778,-1.0777,-1.0786,-1.0788,-1.0788,-1.0788,-1.0788,0,-1.04,-1.042,-1.0456,-1.0472,-1.0495,-1.0521,-1.0544,-1.0564,-1.059,-1.061,-1.0631,-1.065,-1.0682,-1.0706,-1.0726,-1.0753,-1.076,-1.0772,-1.0777,-1.077,-1.0769,-1.0781,-1.078,-1.0788,-1.0788,-1.0788,-1.0788,0,-1.0394,-1.0419,-1.0448,-1.0485,-1.0495,-1.051,-1.0542,-1.0559,-1.0579,-1.0605,-1.0613,-1.0646,-1.0674,-1.0702,-1.074,-1.0754,-1.0781,-1.0788,-1.0771,-1.0774,-1.078,-1.0779,-1.0797,-1.0801,-1.08,-1.08,-1.08,0,-1.0398,-1.0413,-1.0451,-1.0466,-1.0483,-1.0507,-1.0525,-1.0552,-1.0569,-1.0605,-1.0617,-1.0647,-1.0673,-1.0718,-1.0746,-1.0775,-1.0783,-1.0787,-1.0788,-1.078,-1.0783,-1.0782,-1.0784,-1.0787,-1.0787,-1.0786,-1.0786,0,-1.0402,-1.0413,-1.0437,-1.0466,-1.0486,-1.051,-1.0535,-1.0546,-1.0578,-1.0597,-1.0626,-1.0646,-1.0685,-1.0715,-1.0748,-1.0768,-1.0783,-1.0786,-1.079,-1.0783,-1.0772,-1.0778,-1.0769,-1.0786,-1.0786,-1.0786,-1.0786,-1.0786,-1.0401,-1.0416,-1.0445,-1.0471,-1.0492,-1.0515,-1.0532,-1.0555,-1.058,-1.0613,-1.0627,-1.0657,-1.0687,-1.0733,-1.0753,-1.0777,-1.0781,-1.0786,-1.0787,-1.0788,-1.0786,-1.0768,-1.0783,-1.0783,-1.0783,-1.0783,-1.0784,0,-1.0406,-1.0426,-1.045,-1.0483,-1.0504,-1.0516,-1.0544,-1.0561,-1.0586,-1.0613,-1.0637,-1.0671,-1.07,-1.073,-1.0762,-1.0775,-1.0783,-1.0783,-1.0782,-1.0786,-1.0781,-1.0775,-1.0776,-1.0776,-1.0776,-1.0776,-1.0776,-1.0776,-1.0411,-1.0437,-1.0452,-1.0489,-1.0509,-1.0538,-1.0553,-1.0574,-1.0596,-1.0632,-1.0656,-1.0675,-1.0704,-1.0737,-1.0765,-1.0773,-1.0783,-1.0781,-1.0791,-1.0786,-1.0787,-1.0787,-1.0781,-1.0783,-1.0783,-1.0794,-1.0794,-1.0794]}]]